Regional Weather Roundup
Issued by NWS

Home | Current Version | Previous Version | Graphics & Text | Print | Product List | Glossary On
Versions: 1 2 3 4 5 6 7 8 9 10 11 12 13 14 15 16 17 18 19 20 21 22 23 24 25 26 27 28 29 30 31 32 33 34 35 36 37 38 39 40 41 42 43 44 45 46 47 48 49 50
000
ASUS43 KLMK 290510
RWRKY
KENTUCKY REGIONAL WEATHER ROUNDUP
NATIONAL WEATHER SERVICE LOUISVILLE KY
100 AM EDT MON AUG 29 2016

NOTE "FAIR" INDICATES FEW OR NO CLOUDS BELOW 12,000 FEET
WITH NO SIGNIFICANT WEATHER AND/OR OBSTRUCTIONS TO VISIBILITY.

KYZ001>023-026-027-061>063-070>075-290600-
WESTERN AND SOUTH CENTRAL KENTUCKY

CITY           SKY/WX    TMP DP  RH WIND       PRES   REMARKS
PADUCAH        CLEAR     74  72  93 CALM      30.12S
HENDERSON      CLEAR     77  70  78 E6        30.14R
OWENSBORO      PTCLDY    78  70  76 NE3       30.15F
HOPKINSVILLE   CLEAR     76  71  86 N5        30.12F
BOWLING GREEN  PTCLDY    73  69  87 NE3       30.16R
GLASGOW        CLEAR     71  71 100 E6        30.17S
$$

KYZ024-025-028>034-038-045-046-053-290600-
NORTH CENTRAL KENTUCKY

CITY           SKY/WX    TMP DP  RH WIND       PRES   REMARKS
LOUISVILLE/SDF PTCLDY    77  68  73 N5        30.17F
LOUISVILLE/LOU CLEAR     74  68  81 N5        30.18F
FORT KNOX      PTCLDY    72  68  89 E3        30.17F
$$

KYZ035>037-039>044-047>052-055>060-089>105-290600-
NORTHEAST KENTUCKY

CITY           SKY/WX    TMP DP  RH WIND       PRES   REMARKS
LEXINGTON      PTCLDY    72  68  87 SE3       30.19F
COVINGTON      MOCLDY    71  70  96 NW6       30.18F
FRANKFORT      PTCLDY    72  68  87 CALM      30.17F
$$

KYZ054-064>069-076>088-106>120-290600-
SOUTHEAST KENTUCKY

CITY           SKY/WX    TMP DP  RH WIND       PRES   REMARKS
JACKSON          N/A     71  67  87 CALM      30.22S
LONDON         PTCLDY    70  67  90 N6        30.21R
SOMERSET       PTCLDY    68  68 100 CALM      30.21S
MIDDLESBORO    PTCLDY    69  69 100 CALM      30.20S
MONTICELLO     PTCLDY   N/A N/A N/A N12       30.20S
$$





USA.gov is the U.S. government's official web portal to all federal, state and local government web resources and services.